Location: Stilling
(56.0622°N, 9.9882°E)
Time: 23:41:36
(UTC+00:00)

SAR-Lupe-2 - Pass Details

Date: 13 July 2020
Orbit: 482 x 484 km, 98.1° (Epoch: 09 August)

Event Time Altitude Azimuth Distance (km) Brightness Sun altitude
Rises 21:24:15 0° 12° (NNE) 2,564 8.1 -8.1°
Reaches altitude 10° 21:26:21 10° 8° (N) 1,679 7.2 -8.3°
Maximum altitude 21:29:52 54° 292° (WNW) 600 4.3 -8.5°
Drops below altitude 10° 21:33:22 10° 214° (SW) 1,664 6.0 -8.7°
Sets 21:35:26 0° 210° (SSW) 2,539 6.9 -8.8°
